Theta_e
314 314 313 313 313 313 313 313 313 313 313 313 313 313 313 312 312 312 311 311 310 310 309 309 308 307 307 307 306 306 306 305 305 305 304 304 304 303 302 302 302 301
313 313 313 313 313 313 313 313 313 313 313 313 313 312 312 311 310 309 308 308 307 306 305 305 304 303 303 303 302 302 301 301 301 300 300 300 299 299 299 298 298 298
313 313 313 313 313 313 313 313 313 313 313 312 311 310 309 308 307 306 305 304 304 303 303 303 302 301 301 301 300 300 299 299 299 298 298 298 298 297 297 297 297 297
313 313 313 313 313 313 313 313 312 312 311 310 308 307 306 305 304 304 303 303 303 303 302 302 301 300 300 300 299 299 298 298 298 298 297 297 297 297 297 297 297 297
313 313 313 313 313 313 312 312 310 309 308 307 306 305 304 303 302 302 302 302 302 301 301 301 300 300 299 299 298 298 298 297 297 297 297 297 297 297 297 296 296 296
313 313 313 313 312 311 310 309 308 307 306 305 304 303 303 302 301 301 301 301 301 301 300 300 299 299 298 298 298 297 297 297 297 297 297 297 297 296 296 296 296 296
313 313 312 311 310 309 308 307 306 305 304 304 303 302 302 301 301 301 301 300 300 299 299 299 298 298 298 297 297 297 297 297 297 297 296 296 296 296 296 296 296 296
312 311 310 309 308 307 306 306 305 304 303 303 302 301 301 301 301 300 299 299 299 298 298 298 298 297 297 297 297 297 297 296 296 296 296 296 296 296 296 296 296 296
310 309 309 308 307 306 305 304 304 303 302 302 301 301 301 300 300 299 298 298 298 298 298 297 297 297 297 297 296 296 296 296 296 296 296 296 296 296 295 295 295 295
309 308 307 306 305 305 304 303 303 302 302 301 301 300 300 299 299 299 298 298 297 297 297 297 297 296 296 296 296 296 296 296 296 296 296 295 295 295 295 295 295 295
308 307 306 305 304 304 303 302 302 302 301 301 300 299 299 299 299 298 298 297 297 297 297 296 296 296 296 296 296 296 296 295 295 295 295 295 295 295 294 294 294 294
306 305 304 304 303 303 302 302 301 301 300 300 299 299 299 299 298 297 297 297 296 296 296 296 296 296 296 296 295 295 295 295 295 295 295 294 294 294 294 294 294 294
305 304 303 302 302 302 301 301 301 300 300 300 299 299 298 298 297 297 296 296 296 296 296 296 296 295 295 295 295 295 295 295 295 294 294 294 294 294 294 294 293 293
303 302 302 301 301 301 300 300 300 299 299 299 299 298 298 297 297 296 296 296 296 296 295 295 295 295 295 295 295 295 294 294 294 294 294 294 294 294 293 293 293 293
302 301 301 300 300 300 300 300 299 299 299 298 298 298 297 297 296 296 296 296 296 295 295 295 295 294 294 294 294 294 294 294 294 294 293 293 293 293 293 293 292 292
301 301 300 300 300 299 299 299 298 298 298 297 298 297 297 296 296 296 296 295 295 295 295 294 294 294 294 294 294 294 293 293 293 293 293 292 292 293 292 292 292 292
301 300 300 300 300 299 299 298 298 298 298 298 297 297 296 296 296 295 295 295 295 294 294 294 293 293 293 293 293 293 292 292 292 292 292 292 292 292 292 292 292 292
300 300 300 299 299 298 298 298 298 298 298 297 297 296 296 296 295 295 295 294 294 294 293 293 293 293 293 293 292 292 292 292 292 292 292 292 292 292 292 291 292 292
300 299 299 298 298 298 298 298 298 298 297 297 296 296 295 295 295 295 294 294 294 293 293 293 293 292 292 292 292 292 292 292 291 291 291 291 291 291 291 291 291 291
299 298 298 298 298 298 298 298 298 297 297 296 296 295 295 295 294 294 293 293 293 293 293 292 292 292 292 292 292 292 291 291 291 291 291 291 291 291 291 291 291 290
298 298 297 297 298 298 298 298 297 297 296 296 295 295 295 294 294 293 293 293 293 293 293 292 291 291 291 291 291 291 291 291 291 291 291 291 291 291 290 290 290 290
297 297 297 298 298 298 298 298 297 296 295 295 294 294 294 293 293 293 292 292 292 292 292 292 291 291 291 291 291 290 291 291 290 291 291 291 291 291 290 290 290 289
297 297 298 298 298 298 297 297 296 295 295 294 294 293 293 292 292 292 292 292 292 292 291 291 291 291 291 291 290 290 290 290 290 290 291 291 291 291 290 289 289 289
297 297 298 298 298 297 296 295 295 294 294 293 293 292 292 292 292 292 292 292 291 291 291 291 291 290 290 290 290 290 289 289 289 289 290 290 290 290 290 289 289 288
297 298 298 298 297 296 295 294 293 293 293 292 292 292 292 292 292 292 291 291 291 291 290 290 290 290 290 290 290 289 289 289 289 288 288 289 289 289 289 289 288 288
297 297 297 297 296 295 294 293 293 292 292 291 291 291 291 291 291 291 291 291 290 290 290 290 290 290 290 289 289 289 289 288 288 287 287 287 288 288 288 288 288 287
Wind_Speed
15 14 13 12 10 9 7 6 5 4 4 3 3 2 2 2 3 4 5 6 7 7 8 8 9 9 10 11 11 12 12 13 13 13 13 13 14 15 15 15 16 17
16 14 12 10 9 8 7 6 5 5 4 3 2 1 1 2 3 4 4 5 6 6 7 8 8 9 10 10 11 12 12 12 13 13 14 15 15 16 17 17 18 19
14 13 11 10 9 8 7 7 6 5 4 3 2 1 1 2 2 3 4 4 5 6 7 8 9 10 10 11 12 12 13 13 14 14 15 16 17 18 18 19 19 20
13 12 11 10 9 9 8 7 6 5 4 3 2 2 1 1 2 3 4 5 6 8 9 10 11 12 12 13 13 14 14 15 15 16 16 17 18 19 20 20 21 22
13 12 11 10 10 9 8 7 6 5 4 3 2 2 1 2 3 4 5 7 8 9 10 11 12 12 13 14 14 14 15 15 16 16 17 17 18 20 22 23 24 24
13 12 11 10 9 9 8 7 6 5 4 3 2 2 2 3 4 5 6 7 8 9 10 11 12 13 13 14 14 15 16 16 17 17 18 19 19 21 23 25 26 27
13 12 12 11 10 9 8 7 6 5 4 3 2 1 2 3 4 6 7 8 9 10 11 12 13 13 14 15 15 15 17 17 18 19 20 21 22 24 25 27 29 30
13 13 13 12 11 10 9 7 6 5 4 3 1 0 2 3 5 7 8 9 10 11 12 13 14 15 15 16 16 17 18 19 21 22 23 25 26 27 28 29 31 32
14 13 13 12 11 10 9 8 7 5 4 2 1 1 3 4 6 8 9 11 12 13 14 15 15 16 17 18 19 19 20 21 23 24 26 27 28 29 31 31 33 34
15 14 13 12 11 10 9 8 6 5 3 2 1 2 4 5 7 9 11 12 13 14 15 16 16 17 18 19 21 22 23 24 25 26 27 29 30 31 32 34 35 36
15 14 13 12 11 10 9 7 6 4 2 1 2 3 5 7 9 11 12 13 14 15 16 17 18 19 20 21 22 23 25 26 27 28 29 30 31 32 34 35 37 38
15 14 14 12 11 9 8 6 5 3 2 2 3 4 7 9 10 12 13 14 15 16 17 17 18 20 21 22 24 25 26 28 29 30 31 32 33 34 35 37 38 40
16 14 13 12 10 9 7 6 5 4 3 3 4 6 8 10 11 13 14 15 16 17 18 18 19 21 22 23 25 26 28 29 30 31 33 34 35 36 37 39 40 42
15 14 12 11 10 9 7 6 5 3 3 4 6 8 9 11 11 13 14 15 16 17 18 19 20 21 23 24 26 27 29 30 32 33 35 37 38 39 40 40 42 43
15 14 12 11 10 8 7 5 3 3 4 5 7 8 9 11 12 13 14 15 16 17 18 19 20 22 23 25 27 28 30 32 33 35 36 38 39 40 41 41 42 43
15 14 13 11 9 7 5 3 3 3 5 6 7 8 9 10 12 13 15 16 16 17 18 19 21 22 23 25 27 29 32 33 34 35 36 38 39 40 41 42 42 43
16 15 13 11 8 6 4 3 3 4 5 6 7 9 10 11 13 14 16 17 17 18 19 20 21 23 24 26 28 29 31 33 34 35 36 37 39 41 42 44 45 46
16 14 12 10 7 5 4 3 4 4 5 7 8 10 11 12 14 16 16 18 18 19 20 21 22 24 25 27 27 28 30 32 33 35 37 38 39 41 43 45 47 48
15 13 11 9 7 6 5 4 4 5 6 8 9 11 13 14 15 17 18 19 20 21 21 22 24 25 26 26 27 28 30 32 34 36 38 39 41 43 45 46 48 50
15 13 10 9 8 6 6 5 5 6 7 9 11 12 14 15 16 18 19 20 21 22 23 23 24 24 25 26 27 29 31 33 35 37 39 41 43 44 46 48 49 50
14 12 11 9 8 7 6 5 6 7 9 10 12 14 15 16 17 18 19 20 22 23 24 24 23 23 24 26 28 30 33 35 37 39 41 43 45 47 48 49 50 51
14 13 11 10 8 7 5 5 7 8 10 11 12 14 16 17 18 19 20 21 22 23 24 23 22 23 25 27 30 32 34 37 39 41 43 45 47 49 50 51 52 52
15 13 11 10 8 6 6 6 8 9 10 12 13 14 15 17 18 19 21 22 23 24 25 24 23 24 26 28 31 34 36 39 41 43 45 48 49 51 52 53 54 54
15 13 11 9 7 6 6 7 8 10 11 13 14 15 16 18 19 20 21 22 24 24 25 25 26 27 28 30 32 36 38 41 43 45 47 50 52 53 54 55 56 56
14 12 11 9 7 6 7 8 9 10 12 13 14 15 17 19 21 22 22 22 23 24 24 26 27 28 30 32 34 37 40 42 44 47 49 51 53 54 56 57 57 58
14 12 10 8 7 7 7 8 9 11 12 13 14 16 18 20 21 23 23 23 23 23 25 26 28 29 31 34 36 38 41 43 45 47 49 51 54 55 57 58 58 59
Wind_Direction
160 156 153 150 147 146 147 147 143 136 130 128 120 104 77 44 16 3 352 346 345 341 340 340 339 339 338 339 342 342 343 344 346 346 345 344 345 345 345 345 345 342
151 151 150 149 148 149 149 145 141 139 137 136 123 99 40 14 358 352 349 345 346 346 346 346 345 346 346 345 346 346 346 347 348 349 348 348 348 347 346 346 346 344
151 151 150 151 153 152 150 146 146 145 143 138 120 92 27 13 2 354 353 351 352 350 350 351 350 350 350 348 347 346 345 345 346 348 348 347 346 345 344 343 344 343
154 154 154 156 156 154 154 154 154 153 149 146 138 122 89 41 12 1 357 353 353 351 350 349 347 346 344 343 342 342 342 342 343 344 345 344 343 341 340 339 340 341
157 157 157 158 158 158 159 158 160 161 157 156 146 122 81 42 19 6 360 352 349 346 343 341 338 337 337 337 337 338 338 338 339 339 338 339 339 338 337 338 339 340
158 159 159 160 162 162 164 164 165 164 160 156 133 96 49 27 11 358 350 344 341 339 336 335 334 333 333 334 334 334 333 333 334 335 334 335 337 337 337 337 337 338
163 164 164 166 167 166 168 169 168 165 161 151 122 77 22 4 352 344 340 337 336 335 335 333 332 331 330 330 331 331 332 332 333 334 334 335 335 336 336 336 335 335
169 169 169 170 171 170 172 173 171 170 166 155 139 34 352 344 337 337 336 336 336 335 335 334 331 331 330 329 330 331 332 333 333 333 333 333 334 334 334 333 332 332
173 173 173 174 175 176 177 177 175 174 171 169 194 310 333 335 336 339 338 337 336 335 334 333 332 331 331 330 330 330 331 331 331 331 332 332 332 332 332 331 330 330
177 177 177 179 180 181 180 180 180 178 179 200 282 321 334 336 336 337 336 335 334 334 333 332 331 330 330 330 329 329 329 329 329 330 331 331 331 331 330 330 329 328
181 180 181 183 183 183 184 184 185 187 195 241 309 325 331 334 335 335 334 334 333 333 333 331 329 328 328 328 328 328 328 328 329 330 329 329 329 329 329 329 328 328
184 183 183 185 186 186 188 188 190 198 215 265 308 324 330 333 335 335 335 335 334 333 332 330 329 329 328 328 328 327 328 328 328 328 328 328 328 329 329 328 327 327
185 185 185 187 188 188 191 194 200 215 239 285 316 331 336 336 336 336 335 334 333 332 331 331 330 330 329 328 328 328 327 327 327 327 327 327 328 328 328 328 328 327
186 186 186 187 190 193 198 205 215 239 280 316 331 336 336 335 335 335 334 332 332 331 331 331 330 330 329 328 328 328 328 328 328 328 328 328 328 329 330 330 330 329
188 187 188 192 196 201 207 218 241 289 321 330 334 334 334 334 334 333 331 329 328 329 330 331 331 331 332 331 330 330 329 329 329 330 330 330 331 332 332 332 332 331
191 192 194 198 203 209 219 243 287 316 328 328 330 332 332 333 332 329 328 327 328 329 330 333 334 334 335 334 333 332 331 330 332 332 333 333 332 333 333 333 333 332
195 197 201 205 209 219 236 268 298 309 318 322 327 331 331 331 330 329 329 329 330 333 335 337 338 337 337 336 335 333 332 332 332 332 332 332 332 332 332 332 332 332
199 201 203 208 214 224 238 259 283 297 313 322 327 331 331 331 332 331 331 332 333 336 339 341 341 339 338 336 334 333 331 330 331 330 330 331 332 332 332 332 332 331
201 203 204 208 213 222 235 252 280 300 316 325 328 330 331 331 332 333 334 335 335 337 340 342 341 338 336 335 332 331 330 329 329 329 329 331 332 332 331 330 330 330
202 203 204 209 214 224 240 260 288 309 319 324 326 329 330 331 333 334 336 336 336 336 338 340 339 336 334 332 330 329 329 329 329 329 329 330 331 330 329 329 328 327
202 203 206 211 219 230 249 275 298 311 319 322 325 328 329 331 333 334 335 336 335 334 334 336 336 334 331 331 330 329 329 329 329 329 329 329 329 328 327 327 326 325
202 205 210 216 225 240 260 287 301 310 317 320 324 327 328 330 333 334 334 334 333 332 331 332 334 333 330 330 330 330 329 329 328 328 328 328 327 327 326 325 324 323
204 208 214 221 232 248 270 291 302 309 315 319 322 325 327 330 332 333 332 331 331 330 328 329 331 333 332 331 331 330 329 329 328 327 327 326 325 325 324 323 323 322
207 212 219 226 238 256 275 290 300 307 313 318 321 324 327 329 329 330 330 330 328 328 327 327 330 333 333 332 331 330 329 328 327 326 325 324 324 324 323 323 323 322
211 216 223 230 244 262 277 288 298 306 312 316 320 323 326 327 327 326 327 327 326 325 326 327 328 331 333 332 331 329 328 327 327 326 325 324 323 323 323 323 323 323
214 219 227 236 251 265 277 289 299 306 311 315 319 323 325 325 324 323 324 324 323 323 325 327 329 331 332 331 330 329 327 327 327 326 326 325 324 324 323 323 323 323